Notices

What's New in latest Release from April 7th, 2021:

- Updated Glossary, including Speed of Maximum Gust, and Total Hourly Precipitation

- Updated national and regional climate services offices contacts and prices information

- Addition of station inventory lists for 1981-2010, 1971-2000, and 1961-1990 Normals.

If you haven't already, please take our survey and provide feedback about our website: https://eccc.sondage-survey.ca/f/LanguageSelection.aspx?s=442ca660-fcf1-47c0-95a9-59707d6fd709

Hourly Data Report for November 09, 2016

CARBERRY CS
MANITOBA

49°54'20.900" N
99°21'26.800" W
383.50 m
5010547
71170
WZE

Download Data

Hourly Data (November 2016)
Hourly Data Report for November 9, 2016
TIME
LST
Temp Definition
°C
Dew Point Definition
°C
Rel Hum Definition
%
Precip. Amount Definition
mm

Wind Dir Definition
10's deg

Wind Spd Definition
km/h
Visibility Definition
km
Stn Press Definition
kPa
Hmdx Definition


Wind Chill Definition


Weather Definition


00:00 5.8 2.5 79 0.0 22 12   97.40     LegendNANA
01:00 5.9 2.7 80 0.0 21 14   97.36     LegendNANA
02:00 5.9 2.8 80 0.0 20 13   97.31     LegendNANA
03:00 6.5 2.8 78 0.0 20 17   97.23     LegendNANA
04:00 5.0 2.3 83 0.0 22 10   97.17     LegendNANA
05:00 4.3 2.0 85 0.0 21 11   97.08     LegendNANA
06:00 3.2 1.5 89 0.0 21 10   97.02     LegendNANA
07:00 3.1 1.3 88 0.0 21 9   96.98     LegendNANA
08:00 4.1 1.8 85 0.0 22 11   96.93     LegendNANA
09:00 6.5 2.6 76 0.0 23 12   96.88     LegendNANA
10:00 8.8 3.5 69 0.0 22 12   96.83     LegendNANA
11:00 12.4 3.7 55 0.0 23 17   96.75     LegendNANA
12:00 15.1 3.5 46 0.0 23 20   96.65     LegendNANA
13:00 16.6 4.2 44 0.0 22 20   96.54     LegendNANA
14:00 17.3 4.5 43 0.0 25 24   96.52     LegendNANA
15:00 16.7 5.7 48 0.0 24 16   96.47     LegendNANA
16:00 18.2 6.1 45 0.0 23 19   96.45     LegendNANA
17:00 15.6 6.1 53 0.0 25 12   96.43     LegendNANA
18:00 14.2 6.0 58 0.0 24 17   96.43     LegendNANA
19:00 13.5 6.2 61 0.0 25 16   96.40     LegendNANA
20:00 13.1 5.8 61 0.0 25 17   96.38     LegendNANA
21:00 10.3 5.4 72 0.0 26 16   96.38     LegendNANA
22:00 10.6 5.5 71 0.0 27 27   96.39     LegendNANA
23:00 9.6 5.4 75 0.0 26 22   96.38     LegendNANA

Notes on Data Quality.

Legend

  • E = Estimated
  • M = Missing
  • NA = Not Available*
  • [empty] = Indicates an unobserved value
Date modified: